Tracking 29892 objects as of 21-Nov-2024
HD Live streaming from Space Station
objects crossing your sky now

IRIDIUM 33 DEB

Track IRIDIUM 33 DEB now!
10-day predictions


NORAD ID: 38228
Int'l Code: 1997-051ZC
Perigee: 764.5 km
Apogee: 859.0 km
Inclination: 86.3 °
Period: 101.0 minutes
Semi major axis: 7182 km
RCS: 0.0068 m2 (small)
Launch date: September 14, 1997
Source: United States (US)
Launch site: TYURATAM MISSILE AND SPACE COMPLEX (TTMTR)

Note: This is SATELLITE DEBRIS
Your satellite tracking list
Your tracking list is empty




NASA's NSSDC Master Catalog

Two Line Element Set (TLE):
1 38228U 97051ZC  24324.47166962  .00001622  00000-0  65516-3 0  9998
2 38228  86.2992 213.2685 0065777   2.5123 118.1425 14.26154399792456
Source of the keplerian elements: AFSPC